FLOCK 2K-06

Last updated on Wed Feb 14 2018 16:20:54 GMT+0000 (Coordinated Universal Time)

1 42897U 17042CA 18045.18339852 .00007214 00000-0 20988-3 0 9995 2 42897 96.9929 308.0067 0010557 187.3432 172.7660 15.35656978 32757
UTC large
Height (km)
Speed (km/s)
/
Latitude / Longitude
Inclination (degrees)
Orbital Period (minutes)
Azimuth
Elevation
Range (km)
Doppler Factor

Next 0 passes for location: London (51.5072 / 0.1276)

Sorry there are no passes over London.